Location: Unspecified
(0.0000°N, 0.0000°E)
Time: 13:45:26
(UTC+00:00)

Vanguard 1 Rocket - Pass Details

Date: 26 November 2019
Orbit: 650 x 4226 km, 34.3° (Epoch: 08 December)

Event Time Altitude Azimuth Distance (km) Brightness Sun altitude
Rises 23:17:57 0° 258° (WSW) 6,704 12.0 -67.8°
Enters shadow 23:23:33 - 268° (W) 5,212 11.3 -68.2°
Reaches altitude 10° 23:24:32 10° 271° (W) 4,950 - -68.2°
Maximum altitude 23:33:24 22° 315° (NW) 3,005 - -68.7°
Drops below altitude 10° 23:39:14 10° 4° (N) 3,087 - -68.9°
Sets 23:42:11 0° 21° (NNE) 3,690 - -68.9°
